Flag Weather past 2 weeks in Kingston, Norfolk Island

Now
70 °F

Scattered clouds.


Feels Like: 70 °F
Forecast: 65 / 73 °F
Wind: 17 mph from East

Location: Norfolk Island Airport

Current Time: Nov 1, 2014 at 1:34:59 PM

Latest Report: Nov 1, 2014 at 12:30 PM


Visibility: N/A

Pressure: 30.18 "Hg

Humidity: 64%

Dew point: 57 °F

Location of KingstonLocation

Historic Weather in Kingston — Graph

°F

Kingston temperature yesterday

Maximum temperature yesterday: 72 °F (at 12:30 PM)
Minimum temperature yesterday: 59 °F (at 12:00 AM)
Average temperature yesterday: 64 °F

Past Weeks' High & Low Weather Summary

 TemperatureHumidityPressure
High72 °F (Oct 28, 1:30 PM)100% (Oct 17, 5:30 PM)30.21 "Hg (Oct 17, 5:30 PM)
Low55 °F (Oct 26, 9:00 PM)46% (Oct 21, 11:30 AM)29.95 "Hg (Oct 29, 2:30 PM)
Average64 °F73%30.10 "Hg
* Reported Oct 17 12:30 PM — Nov 1 12:30 PM, Kingston, Weather by CustomWeather, © 2014

Note: Actual official high and low records may vary slightly from our data, if they occured in-between our weather recording intervals... More about our weather records

Advertising

Kingston weather history for previous 24 hours

 ConditionsComfort  
Time TempWeatherWind HumidityBarometerVisibility
12:30 PM
Nov 1
70 °FScattered clouds.17 mph64%30.18 "HgN/A
12:00 PM70 °FScattered clouds.17 mph64%30.18 "HgN/A
11:30 AM68 °FScattered clouds.17 mph69%30.18 "HgN/A
10:30 AM68 °FPartly sunny.16 mph64%30.18 "HgN/A
10:00 AM68 °FPartly sunny.17 mph69%30.18 "HgN/A
9:30 AM68 °FPassing clouds.20 mph64%30.21 "HgN/A
9:00 AM68 °FScattered clouds.16 mph64%30.18 "HgN/A
8:30 AM66 °FPartly sunny.14 mph68%30.21 "HgN/A
8:00 AM66 °FMore clouds than sun.13 mph73%30.21 "HgN/A
7:30 AM64 °FPartly sunny.10 mph78%30.21 "HgN/A
7:00 AM64 °FPartly sunny.10 mph78%30.18 "HgN/A
6:30 AM64 °FCloudy.10 mph78%30.18 "HgN/A
6:00 AM63 °FMore clouds than sun.10 mph83%30.18 "HgN/A
5:30 AM63 °FBroken clouds.10 mph77%30.15 "HgN/A
5:00 AM63 °FSunny.9 mph77%30.15 "HgN/A
4:30 AM61 °FClear.9 mph83%30.15 "HgN/A
4:00 AM61 °FClear.8 mph83%30.12 "HgN/A
3:30 AM61 °FClear.8 mph77%30.12 "HgN/A
3:00 AM61 °FClear.9 mph83%30.12 "HgN/A
2:30 AM59 °FClear.8 mph88%30.12 "HgN/A
2:00 AM59 °FClear.8 mph82%30.15 "HgN/A
1:30 AM59 °FClear.8 mph82%30.15 "HgN/A
1:00 AM59 °FClear.8 mph82%30.15 "HgN/A
12:30 AM59 °FClear.8 mph82%30.15 "HgN/A
12:00 AM59 °FClear.8 mph82%30.15 "HgN/A
11:30 PM
Oct 31
61 °FClear.8 mph77%30.18 "HgN/A
11:00 PM61 °FClear.8 mph77%30.18 "HgN/A
10:30 PM63 °FClear.9 mph68%30.18 "HgN/A
10:00 PM61 °FClear.8 mph77%30.18 "HgN/A
9:30 PM61 °FClear.8 mph83%30.18 "HgN/A
9:00 PM63 °FPassing clouds.9 mph77%30.18 "HgN/A
8:30 PM63 °FClear.9 mph83%30.15 "HgN/A
8:00 PM63 °FPassing clouds.9 mph83%30.15 "HgN/A
7:30 PM64 °FPassing clouds.10 mph78%30.15 "HgN/A
7:00 PM63 °FClear.9 mph83%30.12 "HgN/A
6:30 PM64 °FClear.10 mph78%30.12 "HgN/A
6:00 PM66 °FPassing clouds.10 mph73%30.12 "HgN/A
5:30 PM66 °FPassing clouds.12 mph73%30.12 "HgN/A
5:00 PM68 °FScattered clouds.10 mph69%30.09 "HgN/A
4:30 PM68 °FPassing clouds.10 mph69%30.09 "HgN/A
4:00 PM70 °FPassing clouds.13 mph64%30.09 "HgN/A
3:30 PM70 °FPassing clouds.10 mph64%30.09 "HgN/A
3:00 PM70 °FPassing clouds.12 mph64%30.09 "HgN/A
2:30 PM68 °FPassing clouds.12 mph69%30.12 "HgN/A
2:00 PM70 °FPassing clouds.12 mph69%30.12 "HgN/A
1:30 PM70 °FPassing clouds.12 mph69%30.12 "HgN/A
1:00 PM70 °FPassing clouds.8 mph64%30.12 "HgN/A
Weather by CustomWeather, © 2014

See weather overviewHow to use our weather pages